Regional Weather Roundup
Issued by NWS

Home | Current Version | Previous Version | Text Only | Print | Product List | Glossary Off
Versions: 1 2 3 4 5 6 7 8 9 10 11 12 13 14 15 16 17 18 19 20 21 22 23 24 25 26 27 28 29 30 31 32 33 34 35 36 37 38 39 40 41 42 43 44 45 46 47 48 49 50

000
ASUS43 KTOP 222359
RWRKS

WEATHER ROUNDUP FOR KANSAS
NATIONAL WEATHER SERVICE GOODLAND KS
700 PM CDT SUN OCT 22 2017

NOTE:  "FAIR" INDICATES FEW OR NO CLOUDS BELOW 12,000 FEET WITH NO
SIGNIFICANT WEATHER AND/OR OBSTRUCTIONS TO VISIBILITY.

KSZ001>006-013>018-027>032-041>047-230100-
NORTHWEST KANSAS

CITY           SKY/WX    TMP DP  RH WIND       PRES   REMARKS
GOODLAND       CLOUDY    61  23  23 S7        30.05S
6HR MIN TEMP:  61; 6HR MAX TEMP:  69;

HAYS           CLEAR     63  24  22 S7        30.06R
HILL CITY      CLEAR     64  25  22 S3        30.04F
6HR MIN TEMP:  64; 6HR MAX TEMP:  72;

RUSSELL        CLEAR     62  29  28 S6        30.04S
6HR MIN TEMP:  62; 6HR MAX TEMP:  72;

$$

KSZ061>065-074>080-084>089-230100-
SOUTHWEST KANSAS

CITY           SKY/WX    TMP DP  RH WIND       PRES   REMARKS
DODGE CITY     CLEAR     60  23  24 S7        30.08S
6HR MIN TEMP:  60; 6HR MAX TEMP:  72;

ELKHART          N/A     62  29  28 SW5         N/A
GARDEN CITY    CLEAR     60  23  24 S7        30.07S
6HR MIN TEMP:  60; 6HR MAX TEMP:  72;

GREAT BEND     CLEAR     62  29  28 S3        30.07S
LIBERAL        CLEAR     59  29  31 SW7       30.12R
$$

KSZ066>073-081>083-090>101-230100-
SOUTHEAST KANSAS

CITY           SKY/WX    TMP DP  RH WIND       PRES   REMARKS
CHANUTE        CLEAR     57  41  55 N3        30.11S
6HR MIN TEMP:  56; 6HR MAX TEMP:  69;

COFFEYVILLE    CLEAR     57  45  64 NE3       30.11R
6HR MIN TEMP:  57; 6HR MAX TEMP:  70;

HUTCHINSON     CLEAR     60  34  37 E5        30.08S
6HR MIN TEMP:  59; 6HR MAX TEMP:  72;

MEDICINE LODGE   N/A     64  24  21 SW6       30.09S
NEWTON         CLEAR     61  30  31 S6        30.10S
PARSONS        CLEAR     55  43  63 NE3       30.12S
6HR MIN TEMP:  55; 6HR MAX TEMP:  70; 6HR PCP: TRACE;

WICHITA INTL   PTCLDY    60  41  49 SE7       30.09S
6HR MIN TEMP:  59; 6HR MAX TEMP:  71;

WICHITA JABRA  CLEAR     58  38  47 S7        30.10S
6HR MIN TEMP:  58; 6HR MAX TEMP:  69;

WICHITA MCCONL CLEAR     60  39  46 S6        30.10S
WINFIELD       CLEAR     61  42  49 S5        30.12S
6HR MIN TEMP:  61; 6HR MAX TEMP:  68;

$$

KSZ007>012-019>026-033>040-048>060-102>105-230100-
NORTHEAST KANSAS

CITY           SKY/WX    TMP DP  RH WIND       PRES   REMARKS
CONCORDIA      CLEAR     61  29  29 S6        30.05R
6HR MIN TEMP:  61; 6HR MAX TEMP:  70;

EMPORIA        CLEAR     59  34  39 SE7       30.09F
6HR MIN TEMP:  59; 6HR MAX TEMP:  68;

LAWRENCE       CLEAR     53  46  77 CALM      30.09S
6HR MIN TEMP:  53; 6HR MAX TEMP:  69;

MANHATTAN      CLEAR     55  36  48 CALM      30.07R
6HR MIN TEMP:  55; 6HR MAX TEMP:  71;

OLATHE IND     CLEAR     58  40  51 VRB3      30.10S
6HR MIN TEMP:  57; 6HR MAX TEMP:  65;

OLATHE EXE     CLEAR     54  42  64 SE3       30.10S
6HR MIN TEMP:  53; 6HR MAX TEMP:  65;

SALINA         CLEAR     63  36  36 S5        30.07S
6HR MIN TEMP:  62; 6HR MAX TEMP:  73;

TOPEKA BILLARD CLEAR     58  42  55 CALM      30.08S
6HR MIN TEMP:  58; 6HR MAX TEMP:  69;

TOPEKA FORBES  CLEAR     57  42  57 SE5       30.08F
6HR MIN TEMP:  57; 6HR MAX TEMP:  69;

$$




USA.gov is the U.S. government's official web portal to all federal, state and local government web resources and services.